Malaga Aeropuerto en Andalucia

latitud = 36° 39' 58''N | longitud = 004° 28' 56''W
5 metros sobre el nivel del mar |

Fecha, hora, temperatura, viento dirección y velocidad, humedad y presión.

  • 22-09-2018 23:00:00 | 23.50°C | Oeste |6.00 km/h | 64.00% | 1021.80 hPa
  • 22-09-2018 22:00:00 | 24.30°C | Calma |0.00 km/h | 73.00% | 1021.30 hPa
  • 22-09-2018 21:00:00 | 25.10°C | Sudeste |5.00 km/h | 73.00% | 1020.60 hPa
  • 22-09-2018 20:00:00 | 26.70°C | Sudeste |6.00 km/h | 70.00% | 1020.40 hPa
  • 22-09-2018 19:00:00 | 27.60°C | Sudeste |12.00 km/h | 68.00% | 1020.20 hPa
  • 22-09-2018 18:00:00 | 28.50°C | Sudeste |10.00 km/h | 61.00% | 1020.20 hPa
  • 22-09-2018 17:00:00 | 28.60°C | Este |11.00 km/h | 62.00% | 1020.30 hPa
  • 22-09-2018 16:00:00 | 28.00°C | Sudeste |13.00 km/h | 69.00% | 1021.00 hPa
  • 22-09-2018 15:00:00 | 28.20°C | Sudeste |16.00 km/h | 71.00% | 1021.50 hPa
  • 22-09-2018 14:00:00 | 27.90°C | Sudeste |15.00 km/h | 72.00% | 1021.80 hPa
  • 22-09-2018 13:00:00 | 27.90°C | Sudeste |14.00 km/h | 69.00% | 1021.70 hPa
  • 22-09-2018 12:00:00 | 26.90°C | Sudeste |12.00 km/h | 73.00% | 1021.70 hPa
  • 22-09-2018 11:00:00 | 25.90°C | Este |7.00 km/h | 74.00% | 1021.40 hPa
  • 22-09-2018 10:00:00 | 22.60°C | Oeste |4.00 km/h | 66.00% | 1021.10 hPa
  • 22-09-2018 09:00:00 | 20.00°C | Oeste |9.00 km/h | 78.00% | 1020.40 hPa
  • 22-09-2018 08:00:00 | 19.60°C | Oeste |11.00 km/h | 78.00% | 1019.50 hPa
  • 22-09-2018 07:00:00 | 20.70°C | Noroeste |8.00 km/h | 76.00% | 1019.10 hPa
  • 22-09-2018 06:00:00 | 19.90°C | Oeste |12.00 km/h | 83.00% | 1018.80 hPa
  • 22-09-2018 05:00:00 | 20.90°C | Oeste |11.00 km/h | 80.00% | 1018.60 hPa
  • 22-09-2018 04:00:00 | 21.20°C | Oeste |12.00 km/h | 79.00% | 1018.90 hPa
  • 22-09-2018 03:00:00 | 21.70°C | Oeste |9.00 km/h | 79.00% | 1019.10 hPa
  • 22-09-2018 02:00:00 | 22.40°C | Oeste |8.00 km/h | 80.00% | 1019.10 hPa
  • 22-09-2018 01:00:00 | 22.70°C | Oeste |8.00 km/h | 77.00% | 1019.10 hPa
  • 22-09-2018 00:00:00 | 23.60°C | Oeste |4.00 km/h | 78.00% | 1018.80 hPa
    • Datos gráficos mensuales de Malaga Aeropuerto: